Location: Cold Norton
(51.6667°N, 0.6667°E)
Time: 06:46:04
(UTC+00:00)

CORIOLIS - Pass Details

Date: 18 November 2025
Orbit: 815 x 836 km, 98.7° (Epoch: 12 December)

Event Time Altitude Azimuth Distance (km) Brightness Sun altitude
Rises 17:13:22 0° 166° (SSE) 3,348 7.4 -10.7°
Reaches altitude 10° 17:15:43 10° 168° (SSE) 2,416 6.7 -11.1°
Maximum altitude 17:21:04 78° 254° (WSW) 843 4.3 -11.9°
Drops below altitude 10° 17:26:27 10° 343° (NNW) 2,423 6.6 -12.7°
Sets 17:28:48 0° 344° (NNW) 3,358 7.3 -13.0°
